Regional Weather Roundup
Issued by NWS Newport/Morehead, NC

Current Version | Previous Version | Text Only | Print | Product List | Glossary On
Versions: 1 2 3 4 5 6 7 8 9 10 11 12 13 14 15 16 17 18 19 20 21 22 23 24 25 26 27 28 29 30 31 32 33 34 35 36 37 38 39 40 41 42 43 44 45 46 47 48 49 50
000
ASUS42 KMHX 021325
RWRMHX
WEATHER ROUNDUP FOR EASTERN NORTH CAROLINA
NATIONAL WEATHER SERVICE NEWPORT/MOREHEAD CITY NC
900 AM EDT THU JUL 02 2015

NOTE: "FAIR" INDICATES FEW OR NO CLOUDS BELOW 12,000 FEET
WITH NO SIGNIFICANT WEATHER AND/OR OBSTRUCTIONS TO VISIBILITY

NCZ015>017-031-032-045>047-102-103-021400-
NORTH COAST

CITY           SKY/WX    TMP DP  RH WIND       PRES   REMARKS
EDENTON        NOT AVBL
ELIZABETH CITY PTSUNNY   79  73  82 S9        29.92S
KITTY HAWK     NOT AVBL
MANTEO         NOT AVBL

$$

NCZ045>047-081-094-103-104-021400-
CENTRAL COAST

CITY           SKY/WX    TMP DP  RH WIND       PRES   REMARKS
FRISCO         SUNNY     81  75  82 SW9       29.96R
SWANQUARTER      N/A     81 N/A N/A SW12G20   29.91S

$$

NCZ095-097-098-100-101-021400-
SOUTHERN COAST

CITY           SKY/WX    TMP DP  RH WIND       PRES   REMARKS
BEAUFORT       MOSUNNY   82  77  84 SW16      29.97R
CEDAR ISLAND     N/A     84 N/A N/A S14       30.00S
JACKSONVILLE   PTSUNNY   81  71  71 W10       29.96S
PINEY ISLAND   MOSUNNY  N/A N/A N/A SW10      29.95S
WILMINGTON     PTSUNNY   80  70  71 SW9       29.98R


$$

NCZ011>013-027>030-043-044-078>080-089-090>093-098-021400-
COASTAL PLAIN

CITY           SKY/WX    TMP DP  RH WIND       PRES   REMARKS
AHOSKIE        CLOUDY    75  72  91 CALM      29.92R
CLINTON        NOT AVBL
ELIZABETHTOWN  NOT AVBL
GOLDSBORO      CLOUDY    77  72  82 SW6       29.93S
GREENVILLE     NOT AVBL
HAVELOCK       SUNNY     82  73  74 SW12      29.97R
KENANSVILLE    NOT AVBL
KINSTON        CLOUDY    79  72  78 SW8       29.96  FOG
NEW BERN       MOSUNNY   80  72  76 W7        29.97S
RICHLANDS      PTSUNNY   79  68  69 SW8       29.97S
ROCKY MOUNT    CLOUDY    78  73  84 SW8       29.93S HAZE
WASHINGTON     NOT AVBL
WHITEVILLE     NOT AVBL

$$

AMZ130-135-150-152-154-156-158-170-250-252-270-ANZ085-086-088-633-658-670-021400-
MARINE OBSERVATIONS

STATION/POSITION TIME  TEMP    WIND        PRES    WAVE   SWELL
                       AIR SEA DIR/SP/G            HT/PER HT/PER
                 (UTC) (F)     (DEG/KT/KT) (MB)    (FT/S) (FT/S)
CHESAPEAKE LIGHT 1200   77     200/ 14/ 15 1013.0
64 E VA BEACH    1250   78 77  210/ 10/ 12 1013.0    4/ 8   3/ 8
DUCK             1300   79 62  220/ 11/ 15 1012.5
2 E DUCK         1211      72                N/A     2/ 9
OREGON INLET     1300   81 79  220/ 13/ 18 1013.7
13E OREGON INLT  1300      74                N/A     3/ 8
HATTERAS CG      1300   78 80  230/  9/ 12 1014.1
DIAMOND BUOY     1250   81 83  230/ 17/ 21 1014.3    4/ 7   2/ 7
CAPE LOOKOUT     1200   80     230/  8/ 12 1014.5
BEAUFORT LAB     1300   81 80  240/  8/ 18 1014.1
30 SE NEW RVR IN 1208   81 80  240/ 14/ 19 1015.3
27 SE WRIGHTSVLE 1300      80  250/ 10/ 12   N/A
5 SE WRIGHTSVLE  1208   80 80  260/ 12/ 16 1015.1
225 S CAPE HAT   1250   82 80  220/ 19/ 25 1018.3    7/ 7
41 SE CHARLESTON 1250   81 82  240/ 14/ 16 1016.2    4/ 8   2/ 8

$$


USA.gov is the U.S. government's official web portal to all federal, state and local government web resources and services.